KC1HBM Weather Reports


Display with metric or nautical units.
time (UTC)temp
F
wind
direction
speed
MPH
gust
MPH
rain 1hr
in
rain 24hr
in
rain mn
in
humidity
%
barometer
mb
20260902132949 67 309 1.0 2.0 0.00 0.00 0.00 87 1020.7
20260902132445 66 303 1.0 1.0 0.00 0.00 0.00 87 1020.6
20260902131939 66 306 1.0 2.0 0.00 0.00 0.00 88 1020.7
20260902131436 66 304 2.0 2.0 0.00 0.00 0.00 89 1020.6
20260902130935 66 311 1.0 2.0 0.00 0.00 0.00 89 1020.6
20260902130431 66 303 1.0 1.0 0.00 0.00 0.00 92 1020.5
20260902125926 65 308 2.0 2.0 0.00 0.00 0.00 94 1020.6
20260902125422 64 302 1.0 1.0 0.00 0.00 0.00 99 1020.6
20260902124918 63 308 1.0 1.0 0.00 0.00 0.00 99 1020.4
20260902124414 63 311 0.0 1.0 0.00 0.00 0.00 99 1020.4
20260902123908 63 308 1.0 1.0 0.00 0.00 0.00 99 1020.6
20260902123405 63 308 0.0 1.0 0.00 0.00 0.00 99 1020.6
20260902122903 62 308 1.0 1.0 0.00 0.00 0.00 99 1020.4
20260902122359 62 307 0.0 0.0 0.00 0.00 0.00 99 1020.7
20260902121854 62 307 0.0 1.0 0.00 0.00 0.00 99 1020.7
20260902121349 62 311 0.0 0.0 0.00 0.00 0.00 99 1020.8
20260902120844 61 304 1.0 1.0 0.00 0.00 0.00 99 1020.7
20260902120340 61 309 0.0 0.0 0.00 0.00 0.00 99 1020.6
20260902115834 61 310 0.0 0.0 0.00 0.00 0.00 99 1020.8
20260902115331 61 312 0.0 0.0 0.00 0.00 0.00 99 1020.6
20260902114827 61 310 0.0 0.0 0.00 0.00 0.00 99 1020.6
20260902114323 61 311 0.0 0.0 0.00 0.00 0.00 99 1020.8
20260902113822 61 310 0.0 0.0 0.00 0.00 0.00 99 1020.6
20260902113317 61 308 0.0 1.0 0.00 0.00 0.00 99 1020.3
20260902112812 61 306 2.0 2.0 0.00 0.00 0.00 99 1020.3
20260902112309 61 311 0.0 0.0 0.00 0.00 0.00 99 1020.1
20260902111804 61 307 1.0 1.0 0.00 0.00 0.00 99 1020.1
20260902111300 61 309 0.0 1.0 0.00 0.00 0.00 99 1020.3
20260902110755 61 307 1.0 1.0 0.00 0.00 0.00 99 1020.1
20260902110251 61 308 1.0 1.0 0.00 0.00 0.00 99 1020.1
20260902105751 61 308 0.0 0.0 0.00 0.00 0.00 99 1020.1
20260902105246 61 303 1.0 1.0 0.00 0.00 0.00 99 1020.1
20260902104742 61 306 0.0 0.0 0.00 0.00 0.00 99 1020.0
20260902104237 61 310 1.0 2.0 0.00 0.00 0.00 99 1019.9
20260902103737 61 286 1.0 2.0 0.00 0.00 0.00 99 1020.2
20260902103231 61 303 0.0 0.0 0.00 0.00 0.00 99 1020.1
20260902102727 61 308 1.0 1.0 0.00 0.00 0.00 99 1020.2
20260902102225 61 311 1.0 1.0 0.00 0.00 0.00 99 1019.9
20260902101720 61 305 0.0 1.0 0.00 0.00 0.00 99 1020.0
20260902101214 61 311 1.0 2.0 0.00 0.00 0.00 99 1020.0
20260902100713 61 308 1.0 1.0 0.00 0.00 0.00 99 1019.9
20260902100208 61 309 0.0 1.0 0.00 0.00 0.00 99 1019.9
20260902095708 60 310 0.0 0.0 0.00 0.00 0.00 99 1019.9
20260902095202 60 310 0.0 0.0 0.00 0.00 0.00 99 1019.9
20260902094657 61 310 0.0 0.0 0.00 0.00 0.00 99 1020.0
20260902094154 61 308 0.0 0.0 0.00 0.00 0.00 99 1019.9
20260902093653 61 305 2.0 2.0 0.00 0.00 0.00 99 1019.9
20260902093148 61 295 2.0 2.0 0.00 0.00 0.00 99 1020.0
20260902092643 61 309 0.0 0.0 0.00 0.00 0.00 99 1019.9
20260902092143 61 308 0.0 0.0 0.00 0.00 0.00 99 1019.9
20260902091638 61 311 0.0 0.0 0.00 0.00 0.00 99 1019.8
20260902091134 61 308 1.0 1.0 0.00 0.00 0.00 99 1019.8
20260902090630 61 310 0.0 0.0 0.00 0.00 0.00 99 1019.6
20260902090129 61 314 0.0 0.0 0.00 0.00 0.00 99 1019.7
20260902085624 61 310 0.0 0.0 0.00 0.00 0.00 99 1019.8
20260902085119 61 304 0.0 0.0 0.00 0.00 0.00 99 1019.8
20260902084615 61 308 0.0 0.0 0.00 0.00 0.00 99 1019.8
20260902084111 61 307 0.0 0.0 0.00 0.00 0.00 99 1019.8
20260902083606 61 308 0.0 0.0 0.00 0.00 0.00 99 1019.6
20260902083105 62 302 0.0 0.0 0.00 0.00 0.00 99 1019.8
20260902082601 62 308 0.0 0.0 0.00 0.00 0.00 99 1019.9
20260902082057 61 310 0.0 0.0 0.00 0.00 0.00 99 1019.8
20260902081554 62 310 0.0 0.0 0.00 0.00 0.00 99 1019.7
20260902081053 61 314 0.0 0.0 0.00 0.00 0.00 99 1019.6
20260902080548 61 312 0.0 0.0 0.00 0.00 0.00 99 1019.7
20260902080045 62 310 0.0 0.0 0.00 0.00 0.00 99 1019.6
20260902075544 61 310 0.0 0.0 0.00 0.00 0.00 99 1019.3
20260902075041 61 312 0.0 0.0 0.00 0.00 0.00 99 1019.3
20260902074536 61 310 0.0 0.0 0.00 0.00 0.00 99 1019.5
20260902074031 61 311 0.0 0.0 0.00 0.00 0.00 99 1019.3
20260902073526 61 312 0.0 0.0 0.00 0.00 0.00 99 1019.2
20260902073023 61 310 0.0 0.0 0.00 0.00 0.00 99 1019.0
20260902072518 61 312 0.0 0.0 0.00 0.00 0.00 99 1019.1
20260902072015 61 310 0.0 0.0 0.00 0.00 0.00 99 1019.1
20260902071514 62 312 0.0 0.0 0.00 0.00 0.00 99 1019.1
20260902071011 62 310 0.0 0.0 0.00 0.00 0.00 99 1019.1
20260902070506 62 310 0.0 0.0 0.00 0.00 0.00 99 1019.0
20260902070007 61 310 0.0 0.0 0.00 0.00 0.00 99 1019.0
20260902065454 61 310 0.0 0.0 0.00 0.00 0.00 99 1019.1
20260902064949 61 310 0.0 0.0 0.00 0.00 0.00 99 1019.0
20260902064445 61 311 0.0 0.0 0.00 0.00 0.00 99 1019.0
20260902063940 61 310 0.0 0.0 0.00 0.00 0.00 99 1019.0
20260902063439 61 310 0.0 0.0 0.00 0.00 0.00 99 1019.1
20260902062935 61 310 0.0 0.0 0.00 0.00 0.00 99 1019.2
20260902062434 61 311 0.0 0.0 0.00 0.00 0.00 99 1019.2
20260902061929 61 311 0.0 0.0 0.00 0.00 0.00 99 1019.1
20260902061424 61 312 0.0 0.0 0.00 0.00 0.00 99 1018.9
20260902060920 62 310 0.0 0.0 0.00 0.00 0.00 99 1019.1
20260902060416 62 310 0.0 0.0 0.00 0.00 0.00 99 1019.2
20260902055912 61 309 0.0 0.0 0.00 0.00 0.00 99 1019.1
20260902055408 62 310 0.0 0.0 0.00 0.00 0.00 99 1019.2
20260902054903 62 311 0.0 0.0 0.00 0.00 0.00 99 1018.8
20260902054358 62 309 0.0 0.0 0.00 0.00 0.00 99 1018.8
20260902053853 61 311 0.0 0.0 0.00 0.00 0.00 99 1018.7
20260902053348 61 311 0.0 0.0 0.00 0.00 0.00 99 1018.6
20260902052847 61 312 0.0 0.0 0.00 0.00 0.00 99 1018.6
20260902052337 61 310 0.0 0.0 0.00 0.00 0.00 99 1018.4
20260902051837 61 311 0.0 0.0 0.00 0.00 0.00 99 1018.4
20260902051331 61 311 0.0 0.0 0.00 0.00 0.00 99 1018.3
20260902050826 62 313 0.0 0.0 0.00 0.00 0.00 99 1018.3
20260902050326 62 311 0.0 0.0 0.00 0.00 0.00 99 1018.5
20260902045821 62 310 0.0 0.0 0.00 0.00 0.00 99 1018.2
20260902045317 62 310 0.0 0.0 0.00 0.00 0.00 99 1018.3
20260902044813 62 310 0.0 0.0 0.00 0.00 0.00 99 1018.3
20260902044308 62 310 0.0 0.0 0.00 0.00 0.00 99 1018.3
20260902043802 62 310 0.0 0.0 0.00 0.00 0.00 99 1018.3
20260902043258 62 310 0.0 0.0 0.00 0.00 0.00 99 1018.0
20260902042757 62 310 0.0 0.0 0.00 0.00 0.00 99 1018.2
20260902042252 62 310 0.0 0.0 0.00 0.00 0.00 99 1018.2
20260902041748 62 308 0.0 0.0 0.00 0.00 0.00 99 1017.8
20260902041247 62 310 0.0 0.0 0.00 0.00 0.00 99 1017.9
20260902040746 62 309 0.0 0.0 0.00 0.00 0.00 99 1018.1
20260902040242 62 310 0.0 0.0 0.00 0.00 0.00 99 1018.1
20260902035740 62 312 0.0 0.0 0.00 0.00 0.00 99 1018.2
20260902035236 62 311 0.0 0.0 0.00 0.00 0.00 99 1018.1
20260902034735 62 311 0.0 0.0 0.00 0.00 0.00 99 1017.9
20260902034230 62 312 0.0 0.0 0.00 0.00 0.00 99 1018.2
20260902033728 62 311 0.0 0.0 0.00 0.00 0.00 99 1018.0
20260902033224 62 310 0.0 0.0 0.00 0.00 0.00 99 1017.9
20260902032722 62 312 0.0 0.0 0.00 0.00 0.00 99 1017.8
20260902032218 62 309 0.0 0.0 0.00 0.00 0.00 99 1018.0
20260902031717 62 312 0.0 0.0 0.00 0.00 0.00 99 1017.7
20260902031213 62 310 0.0 0.0 0.00 0.00 0.00 99 1017.4
20260902030709 62 311 0.0 0.0 0.00 0.00 0.00 99 1017.4
20260902030208 62 311 0.0 0.0 0.00 0.00 0.00 99 1017.4
20260902025707 62 311 0.0 0.0 0.00 0.00 0.00 99 1017.4
20260902025203 62 308 0.0 0.0 0.00 0.00 0.00 99 1017.4
20260902024657 62 307 0.0 0.0 0.00 0.00 0.00 99 1017.4
20260902024153 62 307 0.0 0.0 0.00 0.00 0.00 99 1017.5
20260902023648 62 309 0.0 0.0 0.00 0.00 0.00 99 1017.6
20260902023144 62 316 0.0 0.0 0.00 0.00 0.00 99 1017.6
20260902022643 62 311 0.0 0.0 0.00 0.00 0.00 99 1017.4
20260902022139 62 311 0.0 0.0 0.00 0.00 0.00 99 1017.4
20260902021634 63 309 0.0 0.0 0.00 0.00 0.00 99 1017.4
20260902021129 63 311 0.0 0.0 0.00 0.00 0.00 99 1017.2
20260902020625 63 310 0.0 0.0 0.00 0.00 0.00 99 1017.3
20260902020120 63 307 0.0 0.0 0.00 0.00 0.00 99 1017.4
20260902015616 62 311 0.0 0.0 0.00 0.00 0.00 99 1017.5
20260902015112 62 310 0.0 0.0 0.00 0.00 0.00 99 1017.6
20260902014608 62 311 0.0 0.0 0.00 0.00 0.00 99 1017.6
20260902014103 62 311 0.0 0.0 0.00 0.00 0.00 99 1017.6
20260902013602 62 310 0.0 0.0 0.00 0.00 0.00 99 1017.6
20260902013058 62 311 0.0 0.0 0.00 0.00 0.00 99 1017.6
20260902012553 62 313 0.0 0.0 0.00 0.00 0.00 99 1017.6
20260902012048 62 311 0.0 0.0 0.00 0.00 0.00 99 1017.6
20260902011544 63 311 0.0 0.0 0.00 0.00 0.00 99 1017.5
20260902011043 63 310 0.0 0.0 0.00 0.00 0.00 99 1017.3
20260902010542 63 311 0.0 0.0 0.00 0.00 0.00 99 1017.4
20260902010039 63 310 0.0 0.0 0.00 0.00 0.00 99 1017.3
20260902005536 63 304 0.0 0.0 0.00 0.00 0.00 99 1017.2
20260902005033 63 311 0.0 0.0 0.00 0.00 0.00 99 1017.4
20260902004532 63 311 0.0 0.0 0.00 0.00 0.00 99 1017.4
20260902004028 63 311 0.0 0.0 0.00 0.00 0.00 99 1017.2
20260902003523 63 312 0.0 0.0 0.00 0.00 0.00 99 1017.0
20260902003018 64 309 0.0 0.0 0.00 0.00 0.00 99 1017.1
20260902002514 64 310 0.0 0.0 0.00 0.00 0.00 99 1017.0
20260902002009 64 311 0.0 0.0 0.00 0.00 0.00 99 1016.7
20260902001503 64 311 0.0 0.0 0.00 0.00 0.00 99 1016.9
20260902000958 64 307 0.0 0.0 0.00 0.00 0.00 99 1016.9
20260902000453 64 309 0.0 0.0 0.00 0.00 0.00 99 1017.1
20260901235948 64 311 0.0 0.0 0.00 0.00 0.00 99 1016.9
20260901235443 64 311 0.0 0.0 0.00 0.00 0.00 99 1016.9
20260901234938 64 308 0.0 0.0 0.00 0.00 0.00 99 1016.9
20260901234431 64 310 0.0 0.0 0.00 0.00 0.00 99 1016.8
20260901233926 64 311 0.0 0.0 0.00 0.00 0.00 99 1016.8
20260901233422 64 311 0.0 0.0 0.00 0.00 0.00 99 1016.8
20260901232918 64 310 0.0 0.0 0.00 0.00 0.00 99 1016.8
20260901232413 64 308 0.0 0.0 0.00 0.00 0.00 99 1016.9
20260901231908 64 310 0.0 0.0 0.00 0.00 0.00 99 1016.7
20260901231404 65 309 0.0 0.0 0.00 0.00 0.00 99 1017.0
20260901230901 64 304 0.0 0.0 0.00 0.00 0.00 99 1016.9
20260901230400 65 309 0.0 0.0 0.00 0.00 0.00 99 1016.8
20260901225855 65 311 0.0 0.0 0.00 0.00 0.00 98 1016.6
20260901225355 65 306 0.0 0.0 0.00 0.00 0.00 98 1016.4
20260901224850 65 306 0.0 0.0 0.00 0.00 0.00 98 1016.4
20260901224346 66 306 2.0 2.0 0.00 0.00 0.00 97 1016.4
20260901223842 66 305 1.0 1.0 0.00 0.00 0.00 96 1016.3
20260901223338 66 303 1.0 1.0 0.00 0.00 0.00 96 1016.5
20260901222833 66 310 0.0 0.0 0.00 0.00 0.00 96 1016.5
20260901222330 66 310 1.0 1.0 0.00 0.00 0.00 96 1016.5
20260901221825 66 303 0.0 0.0 0.00 0.00 0.00 96 1016.6
20260901221320 67 303 0.0 0.0 0.00 0.00 0.00 96 1016.4
20260901220820 66 309 0.0 0.0 0.00 0.00 0.00 95 1016.4
20260901220319 66 310 0.0 0.0 0.00 0.00 0.00 95 1016.6
20260901215818 67 308 0.0 0.0 0.00 0.00 0.00 95 1016.4
20260901215317 66 304 0.0 0.0 0.00 0.00 0.00 95 1016.3
20260901214816 66 307 0.0 0.0 0.00 0.00 0.00 95 1016.5
20260901214315 67 311 0.0 0.0 0.00 0.00 0.00 95 1016.3
20260901213810 67 304 1.0 2.0 0.00 0.00 0.00 95 1016.3
20260901213309 67 309 0.0 1.0 0.00 0.00 0.00 95 1016.2
20260901212804 67 309 1.0 2.0 0.00 0.00 0.00 94 1016.2
20260901212300 67 309 0.0 0.0 0.00 0.00 0.00 94 1016.1
20260901211755 67 309 1.0 1.0 0.00 0.00 0.00 94 1016.1
20260901211252 67 306 2.0 2.0 0.00 0.00 0.00 94 1016.1
20260901210747 67 302 1.0 2.0 0.00 0.00 0.00 94 1016.0
20260901210243 68 306 2.0 2.0 0.00 0.00 0.00 94 1016.2
20260901205738 67 291 2.0 3.0 0.00 0.00 0.00 93 1015.8
20260901205238 67 299 1.0 2.0 0.00 0.00 0.00 94 1016.1
20260901204734 68 309 1.0 1.0 0.00 0.00 0.00 93 1016.1
20260901204230 68 303 1.0 2.0 0.00 0.00 0.00 94 1015.9
20260901203724 68 304 1.0 1.0 0.00 0.00 0.00 93 1015.7
20260901203219 67 307 2.0 2.0 0.00 0.00 0.00 93 1015.8
20260901202718 68 299 2.0 2.0 0.00 0.00 0.00 93 1015.7
20260901202214 68 311 1.0 1.0 0.00 0.00 0.00 92 1015.8
20260901201709 68 300 1.0 2.0 0.00 0.00 0.00 93 1015.8
20260901201208 67 310 2.0 2.0 0.00 0.00 0.00 92 1015.5
20260901200703 68 302 2.0 2.0 0.00 0.00 0.00 93 1015.8
20260901200158 68 306 1.0 2.0 0.00 0.00 0.00 92 1015.9
20260901195655 68 310 1.0 1.0 0.00 0.00 0.00 92 1015.9
20260901195150 68 292 2.0 2.0 0.00 0.00 0.00 92 1015.6
20260901194646 68 300 2.0 2.0 0.00 0.00 0.00 92 1015.7
20260901194141 68 306 1.0 1.0 0.00 0.00 0.00 90 1016.0
20260901193636 68 305 1.0 1.0 0.00 0.00 0.00 90 1016.0
20260901193131 68 305 1.0 1.0 0.00 0.00 0.00 91 1016.0
20260901192625 68 287 3.0 5.0 0.00 0.00 0.00 91 1015.9
20260901192120 68 299 3.0 3.0 0.00 0.00 0.00 90 1016.0
20260901191616 68 299 1.0 2.0 0.00 0.00 0.00 90 1016.2
20260901191113 68 297 1.0 1.0 0.00 0.00 0.00 91 1016.2
20260901190608 68 303 3.0 3.0 0.00 0.00 0.00 91 1016.1
20260901190108 68 304 1.0 2.0 0.00 0.00 0.00 91 1016.1
20260901185605 68 308 2.0 2.0 0.00 0.00 0.00 91 1016.3
20260901185104 68 301 0.0 0.0 0.00 0.00 0.00 90 1016.1
20260901184600 68 300 2.0 2.0 0.00 0.00 0.00 91 1016.1
20260901184055 68 312 2.0 3.0 0.00 0.00 0.00 90 1016.1
20260901183550 68 298 1.0 2.0 0.00 0.00 0.00 89 1015.9
20260901183045 69 291 3.0 5.0 0.00 0.00 0.00 87 1015.8
20260901182542 69 302 2.0 2.0 0.00 0.00 0.00 88 1015.9
20260901182041 70 294 0.0 0.0 0.00 0.00 0.00 87 1015.8
20260901181540 70 305 1.0 2.0 0.00 0.00 0.00 86 1016.0
20260901181035 70 300 0.0 1.0 0.00 0.00 0.00 85 1015.9
20260901180533 71 309 1.0 2.0 0.00 0.00 0.00 84 1015.8
20260901180029 71 299 2.0 3.0 0.00 0.00 0.00 81 1015.8
20260901175522 71 298 2.0 2.0 0.00 0.00 0.00 82 1015.6
20260901175017 71 307 3.0 3.0 0.00 0.00 0.00 81 1015.7
20260901174513 72 288 2.0 2.0 0.00 0.00 0.00 79 1015.6
20260901174009 72 305 1.0 1.0 0.00 0.00 0.00 80 1015.7
20260901173503 72 294 2.0 2.0 0.00 0.00 0.00 79 1015.8
20260901172959 71 310 1.0 1.0 0.00 0.00 0.00 78 1015.5
20260901172454 72 311 0.0 0.0 0.00 0.00 0.00 77 1015.5
20260901171952 71 304 0.0 0.0 0.00 0.00 0.00 81 1015.8
20260901171451 71 313 0.0 0.0 0.00 0.00 0.00 79 1015.6
20260901170950 71 309 1.0 1.0 0.00 0.00 0.00 79 1015.7
20260901170445 71 306 1.0 1.0 0.00 0.00 0.00 78 1015.7
20260901165944 71 307 0.0 1.0 0.00 0.00 0.00 79 1015.9
20260901165439 71 305 1.0 1.0 0.00 0.00 0.00 79 1015.7
20260901164935 72 302 1.0 1.0 0.00 0.00 0.00 79 1015.7
20260901164430 71 312 0.0 0.0 0.00 0.00 0.00 75 1015.6
20260901163925 71 312 0.0 0.0 0.00 0.00 0.00 79 1015.6
20260901163420 71 299 1.0 2.0 0.00 0.00 0.00 77 1015.8
20260901162919 71 306 0.0 1.0 0.00 0.00 0.00 75 1015.8
20260901162414 71 301 1.0 2.0 0.00 0.00 0.00 79 1016.0
20260901161914 70 302 1.0 2.0 0.00 0.00 0.00 78 1015.7
20260901161413 71 309 0.0 0.0 0.00 0.00 0.00 79 1015.8
20260901160908 71 309 0.0 0.0 0.00 0.00 0.00 77 1015.9
20260901160404 70 305 1.0 1.0 0.00 0.00 0.00 78 1016.0
20260901155903 69 293 2.0 2.0 0.00 0.00 0.00 80 1016.0
20260901155358 70 293 2.0 2.0 0.00 0.00 0.00 77 1016.2
20260901154855 69 312 0.0 1.0 0.00 0.00 0.00 79 1016.1
20260901154354 69 303 1.0 1.0 0.00 0.00 0.00 77 1016.1
20260901153849 69 305 1.0 1.0 0.00 0.00 0.00 78 1015.9
20260901153343 68 307 1.0 1.0 0.00 0.00 0.00 78 1015.9
20260901152842 68 302 1.0 2.0 0.00 0.00 0.00 78 1015.9
20260901152343 67 300 2.0 2.0 0.00 0.00 0.00 78 1015.8
20260901151838 67 309 0.0 1.0 0.00 0.00 0.00 78 1015.9
20260901151332 67 312 0.0 0.0 0.00 0.00 0.00 79 1015.8
20260901150826 66 310 0.0 0.0 0.00 0.00 0.00 80 1015.7
20260901150324 66 307 1.0 1.0 0.00 0.00 0.00 81 1015.7
20260901145821 65 309 0.0 1.0 0.00 0.00 0.00 80 1015.6
20260901145321 64 314 0.0 0.0 0.00 0.00 0.00 81 1015.6
20260901144816 64 309 0.0 0.0 0.00 0.00 0.00 84 1015.6
20260901144312 64 309 0.0 0.0 0.00 0.00 0.00 84 1015.8
20260901143803 63 310 0.0 0.0 0.00 0.00 0.00 84 1015.7
20260901143258 62 308 0.0 0.0 0.00 0.00 0.00 85 1015.7
20260901142755 62 300 1.0 1.0 0.00 0.00 0.00 84 1015.7
20260901142253 62 312 0.0 0.0 0.00 0.00 0.00 85 1015.8
20260901141748 62 311 1.0 2.0 0.00 0.00 0.00 85 1016.0
20260901141243 62 304 1.0 2.0 0.00 0.00 0.00 83 1016.3
20260901140742 62 311 0.0 0.0 0.00 0.00 0.00 83 1016.3
20260901140240 62 311 0.0 0.0 0.00 0.00 0.00 83 1016.1
20260901135735 62 313 0.0 0.0 0.00 0.00 0.00 84 1016.2
20260901135229 62 309 1.0 1.0 0.00 0.00 0.00 84 1016.4
20260901134725 62 311 0.0 0.0 0.00 0.00 0.00 82 1016.1
20260901134220 62 311 0.0 0.0 0.00 0.00 0.00 82 1016.5
20260901133720 62 314 0.0 0.0 0.00 0.00 0.00 83 1016.6
20260901133219 61 311 0.0 0.0 0.00 0.00 0.00 83 1016.2